Regional Weather Roundup
Issued by NWS

Home | Current Version | Previous Version | Graphics & Text | Print | Product List | Glossary On
Versions: 1 2 3 4 5 6 7 8 9 10 11 12 13 14 15 16 17 18 19 20 21 22 23 24 25 26 27 28 29 30 31 32 33 34 35 36 37 38 39 40 41 42 43 44 45 46 47 48 49 50
000
ASUS43 KFSD 282010
RWRSD

WEATHER ROUNDUP FOR SOUTH DAKOTA
NATIONAL WEATHER SERVICE SIOUX FALLS SD
300 PM CDT THU JUL 28 2016

NOTE: "FAIR" INDICATES FEW OR NO CLOUDS BELOW 12,000 FEET WITH NO
SIGNIFICANT WEATHER AND/OR OBSTRUCTIONS TO VISIBILITY.


SDZ001>005-009-010-012>017-282100-
NORTHWEST AND NORTH CENTRAL SOUTH DAKOTA

CITY           SKY/WX    TMP DP  RH WIND       PRES   REMARKS
BUFFALO          N/A     69  60  73 NE14G25   30.07S
FAITH            N/A     73  58  59 E6        30.11S
MOBRIDGE       CLOUDY    77  54  44 NE9       30.09F
$$

SDZ012>016-024>037-041>051-057-063-072>074-282100-
SOUTHWEST AND SOUTH CENTRAL SOUTH DAKOTA

CITY           SKY/WX    TMP DP  RH WIND       PRES   REMARKS
RAPID CTY ARPT CLOUDY    71  58  63 NW9       30.15S
PIERRE         CLOUDY    82  57  42 E9        30.05F
CUSTER         LGT RAIN  60  50  69 W8        30.27R
ELLSWORTH AFB  CLOUDY    71  60  68 NW8       30.14F
PHILIP         RAIN      67  66  97 NW7       30.09R FOG
PINE RIDGE     CLOUDY    78  57  48 N10G20    30.13F
WINNER         MOCLDY    77  63  61 SW5       30.08F
$$

SDZ004>011-016>023-039-040-282100-
NORTHEAST SOUTH DAKOTA

CITY           SKY/WX    TMP DP  RH WIND       PRES   REMARKS
ABERDEEN       MOSUNNY   78  62  57 E8        30.07F
WATERTOWN      CLOUDY    80  58  46 E13       30.07F
BROOKINGS      MOSUNNY   74  60  61 VRB5      30.07S
SISSETON         N/A     77  60  55 VRB6      30.07F
$$

SDZ017-020-022-023-036>040-048>070-282100-
SOUTHEAST SOUTH DAKOTA

CITY           SKY/WX    TMP DP  RH WIND       PRES   REMARKS
SIOUX FALLS    PTSUNNY   76  61  59 N3        30.05S
HURON          SUNNY     80  59  48 N6        30.06S
CHAMBERLAIN    PTSUNNY   82  59  46 NE5       30.06F
MITCHELL       SUNNY     82  57  42 NW8       30.06S
YANKTON        CLOUDY    81  57  44 NW8       30.02S
$$

ABBREVIATIONS USED IN REMARKS
   TC - TEMPERATURE IN CELSIUS
  WCI - WIND CHILL INDEX
   HX - HEAT INDEX
  VSB - VISIBILITY




USA.gov is the U.S. government's official web portal to all federal, state and local government web resources and services.